Regional Weather Roundup
Issued by NWS

Home | Current Version | Previous Version | Text Only | Print | Product List | Glossary On
Versions: 1 2 3 4 5 6 7 8 9 10 11 12 13 14 15 16 17 18 19 20 21 22 23 24 25 26 27 28 29 30 31 32 33 34 35 36 37 38 39 40 41 42 43 44 45 46 47 48 49 50
000
ASUS43 KMKX 201259
RWRWI

WISCONSIN REGIONAL WEATHER ROUNDUP
NATIONAL WEATHER SERVICE MILWAUKEE/SULLIVAN WI
700 AM CST FRI JAN 20 2017

NOTE: "FAIR" INDICATES FEW OR NO CLOUDS BELOW 12,000 FEET WITH NO
SIGNIFICANT WEATHER AND/OR OBSTRUCTIONS TO VISIBILITY.

WIZ001-002-006>008-014>016-023>028-201400-
NORTHWEST WISCONSIN

CITY           SKY/WX    TMP DP  RH WIND       PRES   REMARKS
SUPERIOR ARPT  FOG       33  33 100 NE3       29.68S VSB 1
ASHLAND        CLOUDY    34  30  85 S5        29.69R WCI  30
HAYWARD        LGT RAIN  34  32  92 NE5       29.67R WCI  30
SIREN          DRIZZLE   35  35  99 CALM      29.65S
CUMBERLAND     CLOUDY    34  32  93 SE5       29.65S FOG     WCI  30
RICE LAKE      DRIZZLE   34  34  98 E5        29.67S WCI  30
CHETEK         DRIZZLE   34  34 100 E5        29.66S WCI  30
LADYSMITH      CLOUDY    35  33  94 E6        29.69S FOG     WCI  30
EAU CLAIRE     CLOUDY    35  35 100 E5        29.65S FOG     WCI  31
MENOMONIE        N/A    N/A N/A N/A MISG        N/A
NEW RICHMOND   DRIZZLE   34  34 100 CALM      29.64S
OSCEOLA        LGT RAIN  35  35 100 SE6       29.66S WCI  30
$$

WIZ003>005-009-010-017-018-201400-
NORTH CENTRAL WISCONSIN

CITY           SKY/WX    TMP DP  RH WIND       PRES   REMARKS
MANITOWISH WTR NOT AVBL
ARBOR VITAE    MIX PCPN  32  31  96 CALM      29.68S
WOODRUFF       MIX PCPN  32  31  96 CALM      29.68S
RHINELANDER    MIX PCPN  32  31  96 CALM      29.69R FOG
EAGLE RIVER    CLOUDY    30  30 100 CALM      29.68R
LAND O LAKES   CLOUDY    27  27  99 CALM      29.69S
PHILLIPS       DRIZZLE   32  32 100 E5        29.67S WCI  27
TOMAHAWK       LGT RAIN  32  31  97 CALM      29.70R
MEDFORD        DRIZZLE   32  32  98 CALM      29.66S
MERRILL        MIX PCPN  32  32 100 CALM        N/A
$$

WIZ029-030-035-036-043>047-201400-
CENTRAL WISCONSIN

CITY           SKY/WX    TMP DP  RH WIND       PRES   REMARKS
WAUSAU         MIX PCPN  32  31  96 E7        29.68R FOG     WCI  26
MOSINEE        NOT AVBL
MARSHFIELD     LGT RAIN  33  31  92 E7        29.66S FOG     WCI  27
STEVENS POINT  MIX PCPN  31  31 100 E3        29.69S
WAUPACA        DRIZZLE   34  33  96 CALM      29.71S
WAUTOMA        LGT RAIN  33  33 100 NE7       29.68F FOG     WCI  27
WISC RAPIDS    LGT RAIN  33  33 100 E7        29.68F FOG     WCI  27
CAMP DOUGLAS   NOT AVBL
$$

WIZ011>013-019>022-031-037>040-048>050-201400-
NORTHEAST WISCONSIN

CITY           SKY/WX    TMP DP  RH WIND       PRES   REMARKS
ANTIGO         MIX PCPN  31  31 100 E6        29.69S WCI  25
SHAWANO        DRIZZLE   33  32  95 NE3       29.72R
OCONTO         NOT AVBL
STURGEON BAY   FOG       33  32  96 N3        29.72S VSB 1/4
GREEN BAY      LGT RAIN  34  34 100 NE6       29.71S FOG     WCI  29
MANITOWOC      LGT RAIN  36  34  93 CALM      29.70S VSB 3/4
APPLETON       DRIZZLE   34  34 100 NE6       29.67F WCI  29
CLINTONVILLE   MIX PCPN  32  32 100 N5        29.70F WCI  27
OSHKOSH        CLOUDY    33  33 100 NE3       29.68S FOG
$$

WIZ032>034-041-042-053>061-201400-
SOUTHWEST WISCONSIN

CITY           SKY/WX    TMP DP  RH WIND       PRES   REMARKS
LA CROSSE      CLOUDY    37  35  92 SE3       29.65S FOG
SPARTA         CLOUDY    33  33 100 E3        29.66F FOG
VIROQUA        CLOUDY    34  34 100 E5        29.63S VSB 1/2 WCI  30
BOSCOBEL       CLOUDY    36  35  96 CALM      29.66S FOG
PRAIRIE DU CHI FOG       33  33  96 CALM      29.64F VSB 1/2
PLATTEVILLE    CLOUDY    35  35 100 E8        29.63F WCI  28
$$

WIZ056-057-062-063-064-067-068-201400-
SOUTH CENTRAL WISCONSIN

CITY           SKY/WX    TMP DP  RH WIND       PRES   REMARKS
REEDSBURG      NOT AVBL
BARABOO/DELLS  FOG       33  33  99 NE5       29.65F VSB 3/4 WCI  29
LONE ROCK      NOT AVBL
MINERAL POINT  CLOUDY    36  36 100 E7        29.63S FOG     WCI  30
MADISON        LGT RAIN  35  34  96 NE5       29.66S FOG     WCI  31
MIDDLETON      CLOUDY    36  36 100 CALM      29.65S
WATERTOWN      LGT RAIN  35  35 100 E7        29.65S WCI  29
MONROE         FOG       34  34 100 NE6       29.63S VSB 1/4 WCI  29
JANESVILLE     DRIZZLE   37  37 100 E7        29.63F WCI  32
$$

WIZ051-052-058>065-066-070>072-201400-
SOUTHEAST WISCONSIN

CITY           SKY/WX    TMP DP  RH WIND       PRES   REMARKS
MILWAUKEE      LGT RAIN  38  36  92 E8        29.66F FOG     WCI  32
WAUKESHA       LGT RAIN  34  34 100 NE7       29.66F WCI  28
MILWAUKEE/TIMM RAIN      36  34  93 N3        29.67F
RACINE         LGT RAIN  37  36  96 NE6       29.67S FOG     WCI  32
KENOSHA        FOG       37  36  96 NE8       29.64F VSB 3/4 WCI  31
FOND DU LAC    CLOUDY    34  32  92 N3        29.68S FOG
SHEBOYGAN      LGT RAIN  34  34 100 NE3       29.69S VSB 1/2
WEST BEND      DRZL/FOG  34  34 100 NE3       29.68R VSB 1/2
JUNEAU         DRIZZLE   33  33  99 NE5       29.67F WCI  29
$$

LSZ147-162-201400-
LAKE SUPERIOR

STATION/POSITION TIME  TEMP    WIND        PRES    WAVE
                       AIR SEA DIR/SP/G            HT/PER
                 (UTC) (F)     (DEG/KT/KT) (MB)    (FT/S)
DEVILS ISLAND    1200   36      80/  3/  3 1005.6S
PORT WING        1230   33      70/  2/  3 1005.4S
SAXON HARBOR     1240   32     210/  2/  2 1005.4R
$$

LMZ867-665-643>646-201400-
LAKE MICHIGAN

STATION/POSITION TIME  TEMP    WIND        PRES    WAVE
                       AIR SEA DIR/SP/G            HT/PER
                 (UTC) (F)     (DEG/KT/KT) (MB)    (FT/S)
NORTHPORT PIER   1240   32     310/  4/  6 1006.8S
SISTER BAY       1220   33      10/  8/  8   N/A
KEWAUNEE LAKESHO 1230   35      10/  3/  7 1005.6F
SHEBOYGAN LAKESH 1200   35      20/  5/  6 1005.8F
PORT WASHINGTON  1230   36      40/  5/  6 1006.1S
KENOSHA   LAKESH 1200   36      60/  9/ 10 1004.4
$$

TC  - TEMPERATURE IN CELSIUS
VSB - VISIBILITY IN STATUTE MILES
WCI - WIND CHILL INDEX
HX  - HEAT INDEX




USA.gov is the U.S. government's official web portal to all federal, state and local government web resources and services.